Change the Weather History Date:

Wednesday, September 7, 2011

  Actual Average Record
Temperature  
Mean Temperature 63 °F -  
Max Temperature 66 °F 73 °F 88 °F (1959)
Min Temperature 60 °F 58 °F 37 °F (2000)
Degree Days  
Heating Degree Days 2    
Growing Degree Days 13 (Base 50)    
Moisture  
Dew Point 62 °F    
Average Humidity 94    
Maximum Humidity 100    
Minimum Humidity 82    
Precipitation  
Precipitation 0.05 in - - ()
Sea Level Pressure  
Sea Level Pressure 30.15 in    
Wind  
Wind Speed 6 mph (ENE)    
Max Wind Speed 9 mph    
Max Gust Speed -    
Visibility 4 miles    
Events Fog , Rain    
Averages and records for this station are not official NWS values.
T = Trace of Precipitation, MM = Missing Value Source: NWS Daily Summary

Daily Weather History Graph

Daily Weather History Graph

Search for Another Location

Airport or City:

Trip Planner

Search our weather history database for the weather conditions in past years. The results will help you decide how hot, cold, wet, or windy it might be!

Date:

Astronomy

Sep. 07, 2011 Rise Set
Actual Time 6:12 AM EDT 7:04 PM EDT
Civil Twilight 5:44 AM EDT 7:32 PM EDT
Nautical Twilight 5:11 AM EDT 8:06 PM EDT
Astronomical Twilight 4:36 AM EDT 8:41 PM EDT
Moon 4:23 PM EDT (9/7) 1:22 AM EDT (9/7)
Length of Visible Light 13h 48m
Length of Day
12h 51m
Waxing Gibbous, 79% of the Moon is Illuminated
Sep 7
Waxing Gibbous
Sep 12
Full
Sep 20
Last Quarter
Sep 27
New
Oct 3
First Quarter

Hourly Weather History & Observations

Time (EDT) Temp. Dew Point Humidity Pressure Visibility Wind Dir Wind Speed Gust Speed Precip Events Conditions
12:56 AM 60.1 °F 57.9 °F 93% 30.19 in 10.0 mi East 4.6 mph - N/A   Overcast
1:56 AM 61.0 °F 57.9 °F 90% 30.18 in 10.0 mi East 8.1 mph - N/A   Overcast
2:30 AM 60.8 °F 57.2 °F 88% 30.18 in 10.0 mi East 5.8 mph - N/A   Overcast
2:56 AM 61.0 °F 57.9 °F 90% 30.19 in 10.0 mi ENE 5.8 mph - N/A   Overcast
3:56 AM 61.0 °F 57.9 °F 90% 30.17 in 10.0 mi ENE 8.1 mph - N/A   Overcast
4:05 AM 60.8 °F 57.2 °F 88% 30.17 in 10.0 mi ENE 5.8 mph - N/A   Overcast
4:30 AM 62.6 °F 57.2 °F 82% 30.17 in 10.0 mi East 4.6 mph - N/A   Overcast
4:56 AM 62.6 °F 59.0 °F 88% 30.17 in 10.0 mi East 5.8 mph - N/A   Overcast
5:56 AM 62.1 °F 59.0 °F 90% 30.18 in 10.0 mi East 5.8 mph - N/A   Overcast
6:15 AM 62.6 °F 59.0 °F 88% 30.18 in 5.0 mi ENE 9.2 mph - 0.00 in Rain Light Rain
6:56 AM 62.1 °F 60.1 °F 93% 30.19 in 8.0 mi ENE 5.8 mph - 0.00 in   Overcast
7:47 AM 62.6 °F 60.8 °F 94% 30.20 in 1.8 mi East 5.8 mph - 0.00 in Rain Light Rain
7:56 AM 62.1 °F 60.1 °F 93% 30.21 in 1.2 mi East 4.6 mph - 0.01 in Rain Light Rain
8:07 AM 62.6 °F 60.8 °F 94% 30.20 in 3.0 mi East 5.8 mph - 0.00 in Rain Light Rain
8:29 AM 62.6 °F 60.8 °F 94% 30.20 in 2.5 mi ENE 9.2 mph - 0.00 in Rain Light Rain
8:39 AM 62.6 °F 60.8 °F 94% 30.20 in 6.0 mi ENE 6.9 mph - 0.00 in   Overcast
8:56 AM 63.0 °F 61.0 °F 93% 30.20 in 2.0 mi East 6.9 mph - 0.00 in   Overcast
9:10 AM 62.6 °F 60.8 °F 94% 30.20 in 3.0 mi East 8.1 mph - N/A   Overcast
12:56 PM 66.0 °F 64.9 °F 96% 30.18 in 2.0 mi East 4.6 mph - 0.04 in   Overcast
1:18 PM 66.2 °F 64.4 °F 94% 30.16 in 1.5 mi ENE 6.9 mph - N/A   Overcast
1:56 PM 66.0 °F 64.9 °F 96% 30.16 in 1.2 mi East 5.8 mph - N/A   Overcast
2:26 PM 66.2 °F 66.2 °F 100% 30.14 in 2.0 mi East 5.8 mph - N/A   Overcast
2:56 PM 66.9 °F 66.0 °F 97% 30.13 in 2.5 mi ENE 4.6 mph - 0.00 in Rain Light Rain
3:03 PM 66.2 °F 64.4 °F 94% 30.13 in 6.0 mi East 4.6 mph - 0.00 in Rain Light Rain
3:56 PM 66.9 °F 64.9 °F 93% 30.13 in 5.0 mi East 5.8 mph - 0.00 in   Overcast
4:56 PM 66.9 °F 64.9 °F 93% 30.12 in 4.0 mi East 5.8 mph - 0.00 in Rain Light Rain
5:56 PM 66.0 °F 64.0 °F 93% 30.12 in 4.0 mi Variable 3.5 mph - 0.00 in   Overcast
6:04 PM 66.2 °F 64.4 °F 94% 30.12 in 1.8 mi Calm Calm - N/A   Overcast
6:18 PM 66.2 °F 64.4 °F 94% 30.11 in 0.5 mi East 4.6 mph - N/A Fog Fog
6:33 PM 66.2 °F 64.4 °F 94% 30.11 in 0.2 mi Calm Calm - N/A Fog Fog
7:04 PM 66.2 °F 64.4 °F 94% 30.11 in 0.5 mi Calm Calm - N/A Fog Fog
7:42 PM 66.2 °F 64.4 °F 94% 30.11 in 1.8 mi East 3.5 mph - 0.00 in Rain Light Rain
7:56 PM 66.0 °F 64.9 °F 96% 30.12 in 1.8 mi Calm Calm - 0.00 in   Overcast
8:10 PM 66.2 °F 64.4 °F 94% 30.11 in 0.5 mi Calm Calm - N/A Fog Fog
8:56 PM 66.0 °F 64.0 °F 93% 30.12 in 0.5 mi NW 5.8 mph - N/A Fog Fog
9:56 PM 62.6 °F 62.6 °F 100% 30.11 in 0.5 mi North 5.8 mph - N/A Fog Fog
10:51 PM 62.6 °F 62.6 °F 100% 30.10 in 1.0 mi North 6.9 mph - N/A   Mist
10:56 PM 63.0 °F 63.0 °F 100% 30.10 in 1.0 mi North 6.9 mph - N/A   Mist
11:05 PM 62.6 °F 62.6 °F 100% 30.09 in 0.8 mi North 5.8 mph - N/A   Mist
11:15 PM 62.6 °F 62.6 °F 100% 30.10 in 1.0 mi North 5.8 mph - N/A   Mist
11:32 PM 64.4 °F 62.6 °F 94% 30.09 in 3.0 mi North 4.6 mph - N/A   Overcast
11:56 PM 63.0 °F 63.0 °F 100% 30.09 in 2.5 mi North 3.5 mph - N/A   Overcast